QPF
0.00 0.00 0.00 0.00 0.00 0.00 0.00 0.00 0.00 0.00 0.00 0.00 0.00 0.01 0.00 0.00 0.02 0.10 0.41 0.10 0.15 0.36 0.37 0.31 0.17 0.05 0.02 0.00 0.00 0.00 0.00 0.00 0.00 0.00 0.00 0.00 0.00 0.00 0.00 0.00 0.00 0.00 0.00 0.00 0.00 0.00 0.00 0.00 0.00
0.00 0.00 0.00 0.00 0.00 0.00 0.00 0.00 0.00 0.00 0.00 0.00 0.00 0.02 0.01 0.01 0.02 0.06 0.09 0.08 0.10 0.18 0.25 0.16 0.11 0.03 0.02 0.00 0.00 0.01 0.01 0.00 0.00 0.00 0.00 0.01 0.00 0.01 0.00 0.00 0.00 0.00 0.00 0.00 0.00 0.00 0.00 0.00 0.00
0.00 0.00 0.00 0.00 0.00 0.00 0.00 0.00 0.00 0.00 0.00 0.01 0.01 0.01 0.01 0.03 0.05 0.05 0.04 0.06 0.08 0.15 0.17 0.08 0.05 0.01 0.00 0.00 0.01 0.01 0.02 0.00 0.00 0.00 0.00 0.00 0.00 0.00 0.00 0.00 0.00 0.00 0.00 0.00 0.00 0.00 0.00 0.00 0.00
0.00 0.00 0.00 0.00 0.00 0.00 0.00 0.00 0.00 0.00 0.00 0.00 0.01 0.02 0.05 0.14 0.12 0.04 0.03 0.03 0.03 0.09 0.13 0.05 0.03 0.01 0.02 0.01 0.03 0.02 0.02 0.02 0.02 0.00 0.00 0.00 0.01 0.02 0.02 0.01 0.00 0.00 0.00 0.00 0.00 0.00 0.00 0.00 0.00
0.00 0.00 0.00 0.00 0.00 0.00 0.00 0.00 0.00 0.00 0.00 0.00 0.00 0.02 0.05 0.09 0.02 0.03 0.04 0.03 0.00 0.01 0.07 0.08 0.06 0.04 0.05 0.02 0.03 0.06 0.04 0.03 0.01 0.00 0.00 0.00 0.00 0.01 0.00 0.00 0.00 0.00 0.00 0.00 0.00 0.00 0.00 0.00 0.00
0.00 0.00 0.00 0.00 0.00 0.00 0.00 0.00 0.00 0.00 0.00 0.00 0.00 0.01 0.06 0.11 0.07 0.05 0.04 0.03 0.00 0.00 0.09 0.04 0.08 0.10 0.07 0.03 0.02 0.01 0.01 0.02 0.01 0.01 0.00 0.00 0.00 0.00 0.00 0.00 0.00 0.00 0.00 0.00 0.00 0.00 0.00 0.00 0.00
0.00 0.00 0.00 0.00 0.00 0.00 0.00 0.00 0.00 0.00 0.00 0.00 0.00 0.01 0.04 0.04 0.03 0.03 0.02 0.00 0.00 0.00 0.01 0.01 0.06 0.03 0.03 0.01 0.01 0.00 0.00 0.01 0.01 0.02 0.01 0.00 0.00 0.00 0.00 0.00 0.00 0.00 0.00 0.00 0.00 0.00 0.00 0.00 0.00
0.00 0.00 0.00 0.00 0.00 0.00 0.00 0.00 0.00 0.00 0.00 0.00 0.00 0.00 0.01 0.01 0.01 0.01 0.00 0.00 0.00 0.01 0.00 0.01 0.01 0.02 0.04 0.04 0.01 0.00 0.00 0.00 0.00 0.00 0.00 0.00 0.00 0.00 0.00 0.00 0.00 0.00 0.00 0.00 0.00 0.00 0.00 0.00 0.00
0.00 0.00 0.00 0.00 0.00 0.00 0.00 0.00 0.00 0.00 0.00 0.00 0.00 0.00 0.00 0.00 0.00 0.00 0.00 0.00 0.02 0.02 0.00 0.00 0.01 0.04 0.04 0.00 0.02 0.01 0.00 0.00 0.00 0.00 0.00 0.00 0.00 0.00 0.00 0.00 0.00 0.00 0.00 0.00 0.00 0.00 0.00 0.00 0.00
0.00 0.00 0.00 0.00 0.00 0.00 0.00 0.00 0.00 0.00 0.00 0.00 0.01 0.00 0.00 0.00 0.00 0.00 0.00 0.00 0.00 0.00 0.02 0.00 0.00 0.00 0.00 0.00 0.02 0.00 0.00 0.00 0.00 0.00 0.00 0.00 0.00 0.00 0.00 0.00 0.00 0.00 0.00 0.00 0.00 0.00 0.00 0.00 0.00
0.00 0.00 0.00 0.00 0.00 0.00 0.00 0.00 0.00 0.00 0.00 0.00 0.00 0.01 0.01 0.00 0.00 0.00 0.00 0.00 0.00 0.00 0.00 0.00 0.00 0.00 0.00 0.00 0.00 0.00 0.00 0.00 0.00 0.00 0.00 0.00 0.00 0.00 0.00 0.00 0.00 0.00 0.00 0.00 0.00 0.00 0.00 0.00 0.00
0.00 0.00 0.00 0.00 0.00 0.00 0.00 0.00 0.00 0.00 0.00 0.00 0.00 0.00 0.01 0.01 0.00 0.00 0.00 0.00 0.00 0.00 0.00 0.00 0.00 0.00 0.00 0.00 0.00 0.00 0.00 0.00 0.00 0.00 0.00 0.00 0.00 0.00 0.00 0.00 0.00 0.00 0.00 0.00 0.00 0.00 0.00 0.00 0.00
0.00 0.00 0.00 0.00 0.00 0.00 0.00 0.00 0.00 0.00 0.00 0.00 0.00 0.00 0.00 0.01 0.01 0.01 0.00 0.00 0.00 0.00 0.00 0.00 0.00 0.00 0.00 0.00 0.00 0.00 0.00 0.00 0.00 0.00 0.00 0.00 0.01 0.03 0.00 0.00 0.00 0.00 0.00 0.00 0.00 0.00 0.00 0.00 0.00
0.00 0.00 0.00 0.00 0.00 0.00 0.00 0.00 0.00 0.00 0.00 0.00 0.00 0.00 0.00 0.00 0.01 0.01 0.01 0.00 0.00 0.00 0.00 0.00 0.00 0.00 0.00 0.00 0.00 0.00 0.00 0.00 0.00 0.00 0.00 0.00 0.02 0.07 0.02 0.02 0.01 0.00 0.00 0.00 0.00 0.01 0.00 0.00 0.00
0.00 0.00 0.00 0.00 0.00 0.00 0.00 0.00 0.00 0.00 0.00 0.00 0.00 0.00 0.00 0.00 0.00 0.00 0.00 0.00 0.00 0.00 0.00 0.00 0.00 0.00 0.00 0.00 0.00 0.00 0.00 0.00 0.00 0.00 0.00 0.00 0.00 0.01 0.06 0.04 0.03 0.00 0.00 0.00 0.00 0.01 0.00 0.00 0.00
0.00 0.00 0.00 0.00 0.00 0.00 0.00 0.00 0.00 0.00 0.00 0.00 0.00 0.00 0.00 0.00 0.00 0.00 0.00 0.00 0.00 0.00 0.00 0.00 0.00 0.00 0.00 0.00 0.00 0.00 0.00 0.00 0.00 0.00 0.00 0.00 0.00 0.02 0.12 0.04 0.02 0.03 0.09 0.02 0.00 0.00 0.00 0.00 0.00
0.00 0.00 0.00 0.00 0.00 0.00 0.00 0.00 0.00 0.00 0.00 0.00 0.00 0.00 0.00 0.00 0.00 0.00 0.00 0.00 0.00 0.00 0.00 0.00 0.00 0.00 0.00 0.00 0.00 0.00 0.00 0.00 0.00 0.00 0.00 0.00 0.07 0.07 0.09 0.03 0.03 0.08 0.17 0.05 0.02 0.00 0.00 0.00 0.00
0.00 0.00 0.00 0.00 0.00 0.00 0.00 0.00 0.00 0.00 0.00 0.00 0.00 0.00 0.00 0.00 0.00 0.00 0.00 0.00 0.00 0.00 0.00 0.00 0.00 0.00 0.00 0.00 0.00 0.00 0.00 0.00 0.00 0.00 0.00 0.00 0.07 0.09 0.11 0.03 0.02 0.07 0.10 0.04 0.00 0.00 0.00 0.00 0.00
0.00 0.00 0.00 0.00 0.00 0.00 0.00 0.00 0.00 0.00 0.00 0.00 0.00 0.00 0.00 0.00 0.00 0.00 0.00 0.00 0.00 0.00 0.00 0.00 0.00 0.00 0.00 0.00 0.00 0.00 0.00 0.00 0.00 0.00 0.00 0.00 0.00 0.00 0.04 0.01 0.00 0.00 0.00 0.00 0.00 0.00 0.00 0.00 0.00
0.00 0.00 0.00 0.00 0.00 0.00 0.00 0.00 0.00 0.00 0.00 0.00 0.00 0.00 0.00 0.00 0.00 0.00 0.00 0.00 0.00 0.00 0.00 0.00 0.00 0.00 0.00 0.00 0.00 0.00 0.00 0.00 0.00 0.00 0.00 0.00 0.00 0.00 0.00 0.00 0.00 0.00 0.00 0.00 0.00 0.00 0.00 0.00 0.00
0.00 0.00 0.00 0.00 0.00 0.00 0.00 0.00 0.00 0.00 0.00 0.00 0.00 0.00 0.00 0.00 0.00 0.00 0.00 0.00 0.00 0.00 0.00 0.00 0.00 0.00 0.00 0.00 0.00 0.00 0.00 0.00 0.00 0.00 0.00 0.00 0.00 0.00 0.00 0.00 0.00 0.00 0.00 0.00 0.00 0.00 0.00 0.00 0.00
0.00 0.00 0.00 0.00 0.00 0.00 0.00 0.00 0.00 0.00 0.00 0.00 0.00 0.00 0.00 0.00 0.00 0.00 0.00 0.00 0.00 0.00 0.00 0.00 0.00 0.00 0.00 0.00 0.00 0.00 0.00 0.00 0.00 0.00 0.00 0.00 0.00 0.00 0.00 0.00 0.00 0.00 0.00 0.00 0.00 0.00 0.00 0.02 0.00
0.00 0.00 0.00 0.00 0.00 0.00 0.00 0.00 0.00 0.00 0.00 0.00 0.00 0.00 0.00 0.00 0.00 0.00 0.00 0.00 0.00 0.00 0.00 0.00 0.00 0.00 0.00 0.00 0.00 0.00 0.00 0.00 0.00 0.00 0.00 0.02 0.02 0.00 0.00 0.00 0.00 0.00 0.00 0.00 0.00 0.00 0.00 0.01 0.01
0.00 0.00 0.00 0.00 0.00 0.00 0.00 0.00 0.00 0.00 0.00 0.00 0.00 0.00 0.00 0.00 0.00 0.00 0.00 0.00 0.00 0.00 0.00 0.00 0.00 0.00 0.00 0.00 0.00 0.00 0.00 0.00 0.00 0.00 0.00 0.05 0.01 0.00 0.00 0.00 0.00 0.00 0.00 0.00 0.00 0.00 0.00 0.00 0.00
0.00 0.00 0.00 0.00 0.00 0.00 0.00 0.00 0.00 0.00 0.00 0.00 0.00 0.00 0.00 0.00 0.00 0.00 0.00 0.00 0.00 0.00 0.00 0.00 0.00 0.00 0.00 0.00 0.00 0.00 0.00 0.00 0.00 0.00 0.00 0.05 0.00 0.00 0.00 0.00 0.00 0.00 0.00 0.00 0.00 0.00 0.00 0.00 0.00
0.00 0.00 0.00 0.00 0.00 0.00 0.00 0.00 0.00 0.00 0.00 0.00 0.00 0.00 0.00 0.00 0.00 0.00 0.00 0.00 0.00 0.00 0.00 0.00 0.00 0.00 0.00 0.00 0.00 0.00 0.00 0.00 0.00 0.00 0.00 0.01 0.00 0.00 0.00 0.00 0.00 0.00 0.00 0.00 0.00 0.00 0.00 0.00 0.00
0.00 0.00 0.00 0.00 0.00 0.00 0.00 0.00 0.00 0.00 0.00 0.00 0.00 0.00 0.00 0.00 0.00 0.00 0.00 0.00 0.00 0.00 0.00 0.00 0.00 0.00 0.00 0.00 0.00 0.00 0.00 0.00 0.00 0.00 0.00 0.00 0.03 0.01 0.00 0.00 0.00 0.00 0.00 0.00 0.00 0.00 0.00 0.01 0.01
0.00 0.00 0.00 0.00 0.00 0.00 0.00 0.00 0.00 0.00 0.00 0.00 0.00 0.00 0.00 0.00 0.00 0.00 0.00 0.00 0.00 0.00 0.00 0.00 0.00 0.00 0.00 0.00 0.00 0.00 0.00 0.00 0.00 0.00 0.00 0.00 0.01 0.00 0.00 0.00 0.00 0.00 0.00 0.00 0.00 0.03 0.04 0.06 0.06
0.00 0.00 0.00 0.00 0.00 0.00 0.00 0.00 0.00 0.00 0.00 0.00 0.00 0.00 0.00 0.00 0.00 0.00 0.00 0.00 0.00 0.00 0.00 0.00 0.00 0.00 0.00 0.00 0.00 0.00 0.00 0.00 0.00 0.00 0.00 0.01 0.01 0.00 0.00 0.00 0.00 0.00 0.00 0.00 0.03 0.03 0.02 0.02 0.01
0.00 0.00 0.00 0.00 0.00 0.00 0.00 0.00 0.00 0.00 0.00 0.00 0.00 0.00 0.00 0.00 0.00 0.00 0.00 0.00 0.00 0.00 0.00 0.00 0.00 0.00 0.00 0.00 0.00 0.00 0.00 0.00 0.00 0.00 0.01 0.02 0.02 0.01 0.00 0.00 0.00 0.00 0.00 0.00 0.00 0.00 0.00 0.00 0.00
MSLP
1009.95 1009.45 1009.09 1008.20 1006.51 1004.45 1004.83 1005.91 1006.24 1007.06 1008.02 1008.79 1009.22 1009.33 1010.97 1012.54 1013.76 1015.92 1016.43 1016.85 1016.89 1016.77 1016.57 1016.33 1016.51 1016.47 1016.56 1016.92 1017.06 1017.05 1017.27 1017.32 1017.30 1017.33 1017.50 1017.62 1017.85 1017.85 1017.80 1017.86 1017.94 1018.04 1017.99 1018.03 1018.06 1018.08 1018.30 1018.34 1018.33
1008.84 1009.23 1008.76 1006.31 1004.43 1003.99 1005.70 1006.42 1007.16 1008.15 1009.20 1009.76 1009.79 1010.32 1011.07 1013.41 1014.55 1015.88 1016.77 1017.27 1017.25 1017.10 1016.82 1016.58 1016.96 1016.93 1017.05 1017.18 1017.34 1017.46 1017.48 1017.62 1017.65 1017.62 1017.86 1018.03 1018.13 1018.19 1018.20 1018.14 1018.22 1018.36 1018.43 1018.33 1018.43 1018.38 1018.54 1018.57 1018.63
1009.04 1008.89 1006.66 1004.86 1004.69 1005.16 1006.11 1007.23 1007.96 1009.08 1009.52 1009.72 1010.31 1011.15 1012.66 1014.36 1014.98 1016.13 1017.08 1017.30 1017.31 1017.18 1016.86 1017.06 1017.22 1017.45 1017.48 1017.53 1017.63 1017.76 1017.85 1017.89 1017.93 1018.08 1018.15 1018.25 1018.41 1018.41 1018.39 1018.42 1018.54 1018.61 1018.77 1018.61 1018.78 1018.71 1018.81 1018.82 1018.84
1008.61 1007.72 1006.05 1004.59 1005.01 1006.38 1006.84 1007.68 1008.45 1008.97 1009.58 1010.06 1010.69 1011.91 1013.80 1014.76 1014.88 1016.16 1017.03 1017.21 1017.49 1017.37 1017.03 1017.54 1017.51 1017.76 1017.91 1017.99 1018.00 1018.15 1018.15 1018.29 1018.32 1018.48 1018.45 1018.36 1018.51 1018.57 1018.55 1018.62 1018.76 1018.86 1019.10 1019.01 1019.10 1019.09 1019.13 1019.15 1019.05
1007.54 1005.66 1004.22 1004.59 1005.72 1006.86 1007.69 1008.45 1008.87 1009.09 1010.00 1010.46 1010.93 1012.87 1014.66 1015.44 1015.70 1016.66 1017.21 1017.34 1017.80 1017.78 1017.87 1017.88 1018.03 1018.05 1018.17 1018.27 1018.37 1018.42 1018.50 1018.51 1018.53 1018.74 1018.77 1018.80 1018.71 1018.66 1018.79 1018.86 1019.00 1019.09 1019.30 1019.32 1019.35 1019.34 1019.31 1019.26 1019.22
1006.01 1005.06 1003.84 1004.33 1005.86 1007.06 1008.09 1008.70 1008.99 1009.76 1010.66 1011.22 1012.28 1013.56 1015.70 1016.14 1016.34 1017.09 1017.72 1017.77 1018.04 1018.29 1018.33 1018.24 1018.42 1018.32 1018.47 1018.44 1018.51 1018.69 1018.72 1018.69 1018.73 1018.88 1018.94 1019.01 1019.02 1018.90 1019.03 1019.09 1019.23 1019.33 1019.35 1019.41 1019.43 1019.33 1019.31 1019.26 1019.18
1005.05 1003.94 1004.30 1004.65 1005.82 1006.85 1008.20 1008.76 1008.89 1009.68 1010.84 1011.61 1012.24 1014.08 1016.18 1016.59 1016.77 1017.31 1018.00 1018.15 1018.09 1018.67 1018.58 1018.81 1018.67 1018.45 1018.62 1018.69 1018.77 1018.90 1018.98 1019.02 1019.04 1019.14 1019.18 1019.27 1019.24 1019.18 1019.26 1019.41 1019.48 1019.49 1019.45 1019.47 1019.48 1019.41 1019.38 1019.29 1019.10
1004.97 1003.96 1003.87 1004.36 1005.12 1006.93 1008.38 1008.84 1009.51 1009.70 1011.32 1012.34 1012.67 1014.39 1016.20 1017.19 1017.24 1017.49 1018.16 1018.68 1018.82 1018.96 1019.12 1019.09 1018.92 1018.58 1018.77 1019.05 1019.03 1019.22 1019.03 1019.12 1019.17 1019.29 1019.39 1019.32 1019.35 1019.41 1019.39 1019.39 1019.56 1019.61 1019.66 1019.55 1019.42 1019.35 1019.28 1019.21 1019.02
1005.05 1003.24 1003.77 1004.60 1005.07 1006.96 1008.33 1008.81 1010.09 1010.64 1011.47 1012.43 1012.96 1013.80 1016.29 1017.36 1017.59 1017.45 1018.36 1018.95 1019.31 1019.31 1019.31 1019.15 1019.27 1019.16 1019.14 1018.96 1019.30 1019.48 1019.21 1019.23 1019.16 1019.34 1019.36 1019.03 1018.27 1018.57 1018.70 1019.34 1019.56 1019.55 1019.50 1019.48 1019.32 1019.16 1019.18 1018.92 1018.52
1003.80 1003.12 1004.56 1005.25 1005.88 1007.06 1008.18 1008.73 1009.92 1010.49 1011.42 1012.89 1013.91 1015.48 1016.88 1017.57 1017.93 1017.68 1017.69 1018.80 1019.29 1019.44 1019.57 1019.43 1019.35 1019.38 1018.98 1019.16 1019.23 1018.99 1018.93 1018.64 1018.62 1018.81 1018.90 1018.26 1018.52 1018.65 1018.68 1019.22 1019.51 1019.51 1019.52 1019.36 1019.21 1019.01 1018.85 1018.61 1017.29
1004.28 1003.99 1004.89 1005.82 1006.50 1007.37 1008.30 1009.20 1009.87 1010.24 1011.13 1012.88 1014.07 1015.49 1016.95 1017.50 1017.79 1017.80 1017.59 1017.89 1018.22 1018.61 1019.47 1019.47 1019.32 1019.08 1018.74 1019.41 1019.04 1018.82 1018.86 1018.91 1019.04 1019.03 1018.90 1018.96 1018.77 1018.72 1018.27 1018.41 1018.29 1018.55 1018.95 1017.92 1018.28 1018.19 1017.62 1017.83 1017.67
1004.02 1004.95 1005.46 1006.44 1007.13 1007.61 1008.33 1009.31 1009.94 1010.31 1011.11 1012.67 1014.55 1015.26 1016.78 1017.43 1017.70 1017.55 1017.84 1018.37 1018.43 1018.54 1018.66 1018.65 1018.90 1019.15 1019.60 1019.96 1019.35 1019.01 1018.78 1018.85 1018.81 1019.07 1019.26 1018.96 1018.26 1018.56 1018.66 1018.30 1018.50 1018.71 1018.49 1018.44 1018.19 1017.68 1018.04 1017.82 1017.67
1004.33 1005.28 1005.95 1006.66 1007.45 1008.02 1008.69 1009.29 1010.30 1011.39 1012.47 1013.66 1014.73 1015.47 1016.63 1017.21 1017.46 1017.49 1017.57 1017.66 1017.94 1018.19 1018.33 1018.64 1018.99 1020.04 1020.28 1019.89 1019.79 1019.51 1019.35 1019.33 1019.24 1019.12 1019.39 1019.47 1018.96 1018.95 1018.71 1018.57 1018.62 1018.71 1018.51 1018.41 1018.36 1018.22 1017.94 1017.69 1017.33
1004.73 1005.29 1006.04 1006.72 1007.62 1008.07 1008.39 1009.57 1009.96 1012.07 1013.11 1014.30 1015.09 1015.78 1016.37 1016.77 1016.83 1016.80 1017.30 1017.39 1017.54 1017.90 1018.38 1018.64 1019.16 1019.61 1019.83 1019.73 1020.55 1019.84 1019.53 1019.36 1019.27 1019.22 1019.39 1019.40 1019.21 1019.23 1018.84 1018.53 1018.42 1018.08 1018.27 1018.43 1018.50 1018.31 1018.10 1017.72 1017.23
1004.89 1005.12 1005.92 1006.61 1007.25 1007.91 1007.75 1008.69 1010.13 1011.84 1013.00 1014.21 1015.03 1015.52 1015.91 1016.25 1016.36 1016.40 1016.77 1017.17 1017.49 1017.94 1018.26 1018.59 1019.12 1019.39 1019.83 1019.90 1020.09 1019.69 1019.43 1019.35 1019.33 1019.34 1019.47 1019.38 1019.33 1018.94 1019.01 1018.60 1018.71 1018.10 1018.42 1018.59 1018.32 1018.35 1017.78 1017.51 1017.29
1004.18 1004.22 1004.30 1006.27 1006.91 1007.59 1007.77 1008.31 1010.25 1011.41 1012.04 1013.13 1014.17 1014.81 1015.29 1015.54 1015.71 1015.96 1016.28 1016.77 1017.17 1017.48 1018.07 1018.54 1018.61 1018.80 1019.50 1019.38 1019.57 1019.40 1019.34 1019.37 1019.22 1019.09 1018.98 1019.06 1018.80 1018.63 1018.71 1018.26 1018.40 1017.87 1018.70 1018.24 1017.92 1017.86 1017.80 1017.75 1017.39
1003.61 1002.88 1003.99 1005.53 1006.41 1006.83 1007.10 1007.54 1009.49 1010.61 1011.13 1011.87 1012.90 1013.61 1014.17 1014.53 1015.07 1015.25 1015.73 1016.29 1016.71 1017.53 1018.05 1018.58 1018.86 1018.99 1019.25 1019.48 1019.57 1019.56 1019.57 1019.44 1019.11 1018.93 1018.66 1018.61 1018.60 1018.47 1018.52 1018.05 1018.14 1018.52 1018.73 1018.25 1018.14 1017.95 1018.02 1017.68 1017.49
1002.38 1002.77 1003.65 1004.24 1005.66 1006.29 1006.38 1006.89 1008.46 1009.62 1010.13 1010.72 1011.42 1012.15 1012.65 1013.15 1013.74 1014.55 1015.27 1015.78 1016.39 1017.20 1017.93 1018.34 1018.66 1018.91 1019.15 1019.33 1019.63 1019.48 1019.22 1019.19 1018.92 1018.70 1018.51 1018.60 1018.55 1018.63 1018.53 1018.06 1018.09 1018.48 1018.48 1018.37 1018.17 1018.26 1017.99 1017.87 1017.41
1002.47 1002.84 1003.21 1003.82 1005.00 1005.55 1005.42 1005.90 1007.27 1008.43 1008.97 1009.52 1010.34 1011.05 1011.57 1012.00 1012.57 1013.45 1014.58 1015.39 1015.92 1016.63 1017.22 1017.80 1018.30 1018.69 1019.09 1019.03 1019.00 1018.91 1018.67 1018.57 1018.60 1018.59 1018.45 1018.40 1018.22 1018.12 1018.13 1017.58 1017.58 1017.85 1018.01 1018.06 1018.38 1018.28 1017.96 1017.14 1017.20
1002.62 1002.73 1003.00 1003.84 1004.58 1005.16 1004.76 1005.14 1005.72 1007.00 1007.69 1008.04 1008.96 1009.83 1010.53 1011.07 1011.71 1012.75 1013.84 1014.63 1015.15 1015.64 1016.35 1017.12 1017.63 1018.12 1018.66 1018.67 1018.75 1018.55 1018.47 1018.19 1018.16 1018.28 1018.33 1018.17 1018.05 1017.99 1017.91 1018.08 1017.75 1017.54 1017.54 1017.95 1017.97 1018.03 1017.35 1017.04 1017.23
1002.24 1002.39 1002.81 1003.42 1004.26 1004.44 1004.55 1004.29 1004.65 1005.68 1006.53 1007.12 1007.77 1008.56 1009.41 1009.92 1010.77 1011.90 1013.11 1013.75 1014.37 1014.95 1015.63 1016.22 1016.96 1017.43 1017.94 1018.22 1018.40 1018.58 1018.62 1018.46 1018.18 1017.79 1017.72 1017.51 1017.91 1017.92 1017.95 1017.84 1017.89 1017.87 1017.95 1017.19 1017.81 1017.86 1017.64 1016.74 1016.92
1001.68 1002.61 1003.13 1003.35 1003.68 1002.61 1003.73 1002.32 1003.54 1004.18 1005.23 1005.91 1006.42 1007.27 1008.12 1008.97 1009.88 1010.74 1012.04 1012.81 1013.42 1014.11 1014.89 1015.60 1016.18 1016.84 1017.32 1017.75 1017.72 1017.81 1017.59 1017.36 1017.03 1017.19 1017.17 1017.44 1017.66 1017.70 1017.64 1017.65 1017.54 1017.50 1017.09 1017.30 1017.38 1017.47 1017.41 1017.38 1016.58
1001.93 1002.63 1002.98 1003.27 1003.10 1002.99 1003.02 1002.33 1002.63 1003.25 1003.76 1004.34 1005.00 1005.63 1006.68 1007.75 1008.75 1009.56 1010.73 1011.68 1012.66 1013.24 1013.90 1014.74 1015.71 1016.32 1016.80 1017.20 1017.45 1017.46 1017.58 1017.21 1017.21 1017.17 1017.33 1017.52 1017.43 1017.31 1017.39 1017.31 1017.37 1017.44 1017.47 1017.30 1017.38 1017.34 1017.45 1016.94 1016.81
1002.59 1002.94 1003.02 1003.02 1002.42 1002.13 1001.34 1001.58 1000.98 1001.86 1002.18 1002.76 1003.66 1004.47 1005.30 1006.38 1007.53 1008.60 1009.68 1010.69 1011.69 1012.35 1013.10 1013.86 1014.86 1015.60 1016.18 1016.60 1016.93 1017.22 1017.16 1017.25 1016.99 1016.91 1016.99 1016.98 1017.01 1016.62 1016.84 1017.01 1017.31 1017.29 1016.98 1017.07 1017.05 1017.00 1016.94 1016.82 1016.48
1002.25 1002.16 1001.84 1001.68 1001.63 1000.81 1001.43 1001.30 999.68 1000.23 1001.15 1001.45 1002.07 1003.09 1004.05 1005.13 1006.39 1007.47 1008.47 1009.56 1010.58 1011.36 1012.17 1013.03 1013.95 1014.68 1015.32 1015.94 1016.40 1016.73 1016.95 1017.32 1017.31 1017.24 1016.87 1016.54 1016.58 1016.04 1016.37 1016.77 1017.03 1017.21 1017.00 1016.79 1016.74 1016.86 1016.70 1016.46 1016.24
1001.54 1001.13 1000.41 1000.38 1000.04 1000.15 1001.70 1000.42 999.94 1000.09 1000.54 1000.86 1001.41 1001.82 1002.83 1003.85 1005.18 1006.25 1007.29 1008.52 1009.47 1010.40 1011.26 1012.07 1012.85 1013.83 1014.44 1014.97 1015.58 1016.12 1016.52 1016.74 1016.60 1016.50 1016.52 1016.29 1016.08 1015.87 1016.30 1016.49 1016.59 1016.88 1017.09 1017.03 1016.96 1016.68 1016.33 1016.21 1016.06
1000.72 1000.49 1000.09 999.76 1000.01 999.27 999.87 1000.05 999.97 999.73 999.88 1000.29 1001.01 1001.23 1001.73 1002.87 1004.01 1005.25 1006.38 1007.54 1008.56 1009.41 1010.23 1011.09 1012.02 1012.87 1013.61 1014.12 1014.73 1015.28 1015.78 1016.17 1015.87 1015.98 1016.13 1015.97 1016.14 1015.92 1016.35 1016.34 1016.62 1016.56 1016.65 1016.66 1016.65 1016.32 1016.05 1016.08 1015.87
999.91 1000.50 1000.31 999.95 999.13 999.11 999.08 999.11 998.43 999.05 998.97 999.97 1000.45 1000.90 1001.75 1002.45 1003.46 1004.51 1005.61 1006.67 1007.66 1008.54 1009.46 1010.43 1011.23 1012.04 1012.75 1013.37 1013.87 1014.47 1015.07 1015.56 1015.72 1015.84 1015.84 1015.76 1015.85 1016.21 1016.30 1016.43 1016.42 1016.51 1016.52 1016.53 1016.50 1016.18 1016.09 1016.01 1015.92
1000.25 999.24 999.34 998.70 998.94 998.39 998.21 998.17 998.31 998.79 999.09 999.78 1000.21 1000.92 1001.68 1002.38 1003.12 1004.05 1004.96 1006.17 1007.26 1008.03 1008.92 1009.77 1010.73 1011.52 1012.26 1012.96 1013.51 1014.10 1014.46 1014.86 1015.21 1015.33 1015.31 1015.74 1016.11 1016.37 1016.63 1016.59 1016.57 1016.50 1016.28 1016.22 1016.20 1016.05 1015.80 1015.63 1015.55
998.85 998.65 998.89 998.36 999.00 998.74 998.05 997.38 998.08 998.67 999.13 999.96 1000.11 1000.95 1001.53 1002.29 1003.24 1004.16 1005.01 1006.01 1007.05 1007.94 1008.61 1009.48 1010.41 1011.18 1011.98 1012.66 1013.42 1013.89 1014.28 1014.61 1014.77 1015.34 1015.69 1016.07 1016.36 1016.53 1016.47 1016.45 1016.27 1016.20 1016.30 1016.33 1016.40 1016.23 1015.85 1015.52 1015.14
Thickness
5819 5821 5823 5818 5804 5816 5793 5789 5808 5795 5791 5801 5803 5798 5782 5775 5759 5739 5759 5762 5764 5763 5765 5769 5769 5772 5773 5771 5772 5772 5772 5773 5775 5776 5775 5774 5772 5773 5774 5775 5774 5772 5773 5771 5770 5769 5766 5765 5765
5827 5823 5820 5824 5806 5793 5781 5800 5787 5791 5791 5796 5800 5796 5789 5762 5771 5763 5760 5762 5763 5764 5765 5767 5768 5769 5769 5771 5769 5770 5772 5772 5773 5775 5773 5772 5771 5770 5771 5773 5773 5771 5770 5771 5768 5769 5765 5765 5764
5827 5826 5822 5817 5804 5782 5778 5792 5792 5791 5797 5795 5788 5795 5778 5758 5772 5764 5764 5764 5765 5766 5767 5766 5766 5764 5766 5768 5768 5768 5769 5770 5771 5770 5771 5772 5770 5771 5772 5772 5771 5771 5767 5770 5767 5767 5764 5763 5763
5823 5824 5831 5807 5792 5793 5793 5797 5798 5795 5798 5801 5796 5776 5777 5776 5776 5771 5767 5765 5765 5766 5768 5764 5765 5763 5763 5763 5766 5767 5768 5768 5768 5767 5769 5771 5771 5771 5772 5771 5770 5769 5765 5766 5764 5764 5762 5760 5761
5836 5835 5816 5804 5793 5797 5800 5800 5800 5793 5790 5791 5796 5770 5761 5770 5776 5770 5766 5765 5762 5762 5762 5761 5762 5762 5762 5762 5763 5765 5766 5767 5768 5766 5766 5767 5770 5771 5770 5770 5769 5768 5765 5765 5763 5763 5762 5761 5760
5825 5834 5812 5798 5795 5800 5800 5802 5800 5790 5786 5787 5779 5771 5755 5770 5769 5765 5762 5763 5761 5760 5760 5760 5761 5761 5761 5762 5763 5763 5763 5765 5767 5766 5767 5766 5768 5770 5769 5768 5767 5766 5766 5764 5763 5763 5763 5763 5763
5829 5829 5808 5809 5798 5797 5796 5809 5800 5794 5784 5779 5791 5761 5756 5761 5767 5765 5760 5760 5760 5757 5758 5758 5758 5761 5760 5762 5762 5760 5761 5763 5764 5766 5766 5766 5767 5769 5768 5767 5765 5765 5765 5765 5763 5763 5763 5763 5764
5840 5836 5817 5819 5808 5792 5803 5806 5806 5800 5780 5792 5792 5757 5751 5756 5764 5765 5760 5756 5755 5755 5755 5756 5758 5761 5761 5759 5759 5757 5761 5761 5763 5765 5766 5767 5767 5767 5768 5767 5765 5764 5762 5763 5764 5764 5764 5764 5765
5853 5835 5812 5811 5813 5802 5811 5802 5803 5806 5790 5787 5788 5783 5766 5761 5762 5763 5755 5752 5749 5750 5755 5756 5756 5755 5756 5757 5756 5756 5759 5760 5763 5765 5766 5769 5774 5772 5771 5766 5763 5763 5762 5762 5763 5765 5765 5766 5768
5844 5838 5815 5829 5826 5810 5812 5810 5801 5796 5789 5776 5775 5772 5764 5759 5755 5755 5758 5747 5748 5749 5750 5752 5754 5755 5758 5757 5757 5762 5762 5765 5767 5767 5767 5773 5772 5771 5770 5766 5764 5763 5762 5762 5763 5764 5765 5767 5775
5843 5826 5833 5827 5828 5823 5811 5805 5810 5800 5786 5781 5772 5769 5760 5758 5755 5755 5760 5760 5759 5759 5753 5754 5757 5760 5760 5756 5760 5763 5762 5762 5762 5764 5767 5767 5769 5770 5773 5770 5771 5767 5764 5768 5766 5767 5770 5768 5769
5836 5839 5836 5827 5827 5821 5810 5813 5803 5806 5799 5798 5781 5779 5764 5755 5753 5757 5755 5753 5756 5758 5761 5762 5760 5759 5754 5752 5757 5760 5763 5762 5763 5764 5763 5766 5773 5770 5768 5769 5766 5762 5762 5762 5763 5767 5765 5767 5766
5839 5835 5836 5833 5826 5823 5819 5809 5801 5794 5797 5792 5784 5778 5764 5759 5758 5761 5763 5764 5762 5759 5761 5760 5758 5752 5750 5752 5753 5757 5759 5760 5761 5763 5761 5761 5765 5764 5765 5765 5763 5762 5762 5761 5760 5761 5764 5766 5767
5848 5841 5834 5833 5822 5823 5814 5806 5812 5794 5796 5782 5778 5772 5770 5766 5767 5769 5765 5765 5765 5763 5760 5761 5757 5754 5753 5754 5750 5755 5757 5759 5760 5761 5761 5762 5763 5762 5764 5766 5766 5767 5764 5761 5759 5760 5762 5764 5766
5849 5831 5833 5830 5827 5817 5830 5807 5798 5803 5797 5780 5777 5777 5776 5774 5775 5774 5773 5768 5768 5765 5764 5762 5758 5756 5754 5754 5755 5757 5760 5761 5760 5761 5761 5763 5762 5765 5764 5766 5764 5767 5763 5761 5762 5761 5765 5766 5765
5841 5845 5826 5828 5829 5826 5822 5796 5804 5809 5804 5791 5786 5783 5781 5781 5783 5783 5782 5778 5776 5774 5769 5767 5767 5765 5760 5760 5760 5761 5762 5762 5764 5764 5765 5765 5766 5766 5765 5766 5764 5768 5763 5765 5766 5766 5764 5764 5766
5840 5833 5827 5820 5836 5828 5824 5810 5813 5817 5812 5802 5797 5793 5791 5791 5789 5792 5791 5787 5785 5779 5774 5769 5768 5766 5765 5762 5762 5763 5763 5764 5766 5767 5768 5768 5767 5766 5766 5768 5766 5763 5761 5764 5764 5764 5762 5762 5762
5831 5833 5834 5826 5832 5831 5825 5820 5819 5820 5818 5812 5811 5807 5804 5802 5800 5801 5797 5795 5791 5785 5779 5776 5773 5771 5769 5767 5765 5766 5768 5768 5769 5770 5770 5769 5769 5767 5765 5767 5766 5763 5760 5759 5762 5758 5760 5760 5761
5850 5840 5832 5842 5845 5832 5832 5831 5825 5825 5825 5821 5817 5814 5812 5812 5817 5813 5806 5801 5797 5792 5787 5783 5779 5776 5772 5772 5770 5769 5769 5772 5771 5770 5770 5769 5769 5769 5768 5769 5769 5767 5765 5762 5758 5757 5757 5762 5762
5846 5837 5835 5842 5846 5837 5839 5832 5843 5836 5832 5836 5828 5823 5821 5821 5821 5817 5811 5808 5805 5801 5797 5791 5786 5782 5777 5776 5773 5773 5773 5775 5774 5772 5770 5768 5767 5768 5768 5767 5768 5767 5768 5764 5762 5759 5761 5761 5759
5845 5839 5838 5832 5838 5846 5837 5831 5840 5846 5845 5844 5843 5839 5834 5832 5827 5823 5816 5814 5811 5806 5803 5799 5794 5790 5786 5782 5778 5772 5771 5772 5772 5774 5772 5766 5762 5762 5763 5764 5763 5761 5760 5765 5758 5756 5755 5757 5758
5837 5853 5843 5838 5828 5831 5846 5829 5840 5849 5842 5845 5847 5845 5842 5841 5839 5835 5826 5821 5817 5815 5811 5808 5804 5798 5794 5788 5786 5780 5779 5777 5782 5780 5776 5767 5763 5764 5764 5763 5762 5762 5763 5760 5758 5755 5752 5750 5748
5842 5854 5843 5839 5834 5834 5834 5831 5837 5855 5841 5848 5855 5857 5855 5853 5848 5844 5838 5833 5828 5825 5821 5817 5809 5802 5799 5794 5789 5786 5780 5784 5783 5780 5774 5770 5768 5769 5766 5763 5761 5758 5756 5758 5754 5751 5747 5749 5744
5850 5839 5839 5840 5841 5812 5847 5839 5843 5847 5855 5862 5868 5868 5867 5864 5860 5855 5851 5845 5837 5836 5830 5824 5815 5808 5804 5799 5794 5789 5785 5781 5780 5778 5775 5774 5772 5773 5768 5764 5759 5755 5756 5754 5752 5750 5747 5745 5744
5841 5830 5807 5803 5807 5821 5845 5835 5866 5881 5879 5880 5878 5878 5879 5877 5869 5861 5856 5851 5846 5841 5837 5831 5822 5815 5811 5804 5798 5792 5787 5781 5776 5773 5773 5773 5771 5775 5770 5764 5759 5755 5752 5751 5748 5745 5743 5741 5738
5829 5838 5822 5786 5812 5831 5833 5824 5851 5887 5892 5894 5892 5894 5892 5886 5880 5872 5867 5861 5856 5850 5845 5838 5830 5820 5816 5811 5803 5798 5792 5786 5784 5781 5777 5776 5773 5773 5765 5762 5757 5752 5747 5743 5740 5740 5740 5736 5732
5831 5821 5863 5841 5843 5840 5843 5854 5873 5889 5889 5891 5886 5893 5893 5891 5887 5880 5876 5869 5862 5857 5852 5845 5836 5828 5822 5817 5811 5803 5796 5790 5789 5786 5782 5779 5773 5772 5763 5757 5752 5748 5744 5739 5736 5735 5732 5727 5724
5845 5855 5817 5832 5809 5803 5833 5838 5854 5869 5884 5884 5883 5888 5890 5894 5890 5885 5880 5875 5870 5865 5860 5852 5845 5834 5828 5822 5816 5808 5801 5794 5790 5786 5782 5779 5775 5767 5761 5755 5750 5744 5739 5734 5730 5727 5724 5718 5714
5822 5833 5840 5858 5847 5826 5820 5838 5884 5877 5886 5882 5888 5890 5890 5891 5891 5889 5884 5879 5872 5868 5862 5854 5845 5836 5828 5821 5816 5808 5804 5798 5793 5788 5784 5776 5768 5761 5754 5749 5743 5739 5736 5731 5726 5722 5719 5713 5707
5851 5844 5844 5825 5812 5838 5844 5855 5896 5892 5892 5888 5891 5891 5896 5895 5891 5887 5883 5877 5869 5862 5859 5852 5845 5836 5829 5823 5814 5808 5803 5797 5792 5783 5776 5769 5761 5755 5750 5744 5740 5735 5729 5723 5716 5710 5707 5704 5699